Hourly Data Report for October 01, 2013

All times are specified in Local Standard Time (LST). Add 1 hour to adjust for Daylight Saving Time where and when it is observed.

HALL BEACH A
NUNAVUT

68°46'33.000" N
81°14'33.000" W
9.10 m
2402354
71293
YUX

Download Data

Hourly Data (October 2013)
Hourly Data Report for October 1, 2013
Temp Definition
°C
Dew Point Temp Definition
°C
Rel Hum Definition
%
Wind Dir Definition
10's deg

Wind Spd Definition
km/h
Visibility Definition
km
Stn Press Definition
kPa
Hmdx Definition


Wind Chill Definition


Weather Definition


TIME
00:00 Legend Double Dagger -3.8 -5.1 91 35 18 16.1 100.29   -10 LegendNANA
01:00 Legend Double Dagger -4.1 -5.4 91 35 22 16.1 100.33   -11 LegendNANA
02:00 Legend Double Dagger -4.5 -5.8 91 34 21 16.1 100.38   -11 LegendNANA
03:00 Legend Double Dagger -4.6 -5.6 93 34 18 16.1 100.44   -11 LegendNANA
04:00 Legend Double Dagger -4.9 -5.9 93 34 15 16.1 100.49   -10 LegendNANA
05:00 Legend Double Dagger -4.8 -5.9 92 33 17 16.1 100.53   -11 LegendNANA
06:00 Legend Double Dagger -5.1 -5.8 95 33 17 16.1 100.56   -11 LegendNANA
07:00 Legend Double Dagger -5.3 -6.3 93 32 18 16.1 100.60   -12 LegendNANA
08:00 Legend Double Dagger -5.0 -6.3 91 33 18 16.1 100.63   -11 LegendNANA
09:00 Legend Double Dagger -4.1 -5.4 90 34 21 16.1 100.64   -11 LegendNANA
10:00 Legend Double Dagger -3.5 -5.1 89 34 21 16.1 100.64   -10 LegendNANA
11:00 Legend Double Dagger -3.1 -4.8 88 33 22 16.1 100.64   -9 LegendNANA
12:00 Legend Double Dagger -2.6 -4.6 86 34 22 16.1 100.64   -9 LegendNANA
13:00 Legend Double Dagger -2.2 -4.6 84 34 22 16.1 100.67   -8 LegendNANA
14:00 Legend Double Dagger -2.1 -4.7 82 35 18 16.1 100.70   -8 LegendNANA
15:00 Legend Double Dagger -2.0 -4.8 82 34 22 16.1 100.71   -8 LegendNANA
16:00 Legend Double Dagger -2.0 -4.8 81 33 18 16.1 100.71   -7 LegendNANA
17:00 Legend Double Dagger -2.3 -4.6 84 33 18 16.1 100.73   -8 LegendNANA
18:00 Legend Double Dagger -3.4 -5.0 89 36 21 16.1 100.74   -10 LegendNANA
19:00 Legend Double Dagger -3.6 -5.3 88 36 21 16.1 100.78   -10 LegendNANA
20:00 Legend Double Dagger -3.8 -5.2 90 35 21 16.1 100.78   -10 LegendNANA
21:00 Legend Double Dagger -4.0 -5.6 89 36 21 16.1 100.78   -10 LegendNANA
22:00 Legend Double Dagger -3.9 -5.3 90 1 21 16.1 100.78   -10 LegendNANA
23:00 Legend Double Dagger -3.6 -5.0 90 34 30 16.1 100.77   -11 LegendNANA

Notes on Data Quality.

Legend

  • E = Estimated
  • M = Missing
  • NA = Not Available
  • ‡ = Partner data that is not subject to review by the National Climate Archives
Date modified: